User: anonymous   Login
Location: Unspecified
(0.0000°N, 0.0000°E)
Time: 09:37:12
(UTC+00:00)
Language:

CUBEBUG 2 - Orbit

View from above orbital plane
View from above orbital plane
View from above satellite
View from above satellite

Ground track
Ground track

The orbit data is extracted from the following two-line orbital elements,

1 39440U 13066AA  19017.53867405 +.00000135 +00000-0 +25929-4 0  9992
2 39440 097.5990 024.9996 0079452 218.4832 141.0697 14.75780910276336
Epoch (UTC): 17 January 2019 12:55:41
Eccentricity: 0.0079452
inclination: 97.5990°
perigee height: 587 km
apogee height: 698 km
right ascension of ascending node: 24.9996°
argument of perigee: 218.4832°
revolutions per day: 14.75780910
mean anomaly at epoch: 141.0697°
orbit number at epoch: 27633

The dashed part of the orbit path shows where the satellite is in the earth's shadow,  

DLR